Lid_Strength_Index
7 7 7 7 6 6 10 13 17 9 9 16 15 16 10 7 9 8 9 10 11 13 12 13 13 14 11 8 8 12 10 12 16 15 10 9 11 13 13 19 19 18 22 18
7 7 7 7 7 7 12 15 15 10 11 19 18 13 10 8 9 9 9 10 10 10 12 14 13 11 8 7 9 11 10 14 18 16 13 11 13 12 13 15 17 17 21 18
7 7 7 7 7 7 13 16 19 16 14 14 16 15 14 11 8 9 8 9 8 11 12 11 13 12 9 7 8 7 8 13 15 18 16 13 15 14 13 16 21 18 19 16
7 7 8 8 8 8 13 17 17 14 20 18 16 15 13 12 11 8 8 10 10 11 13 12 13 11 10 8 7 9 11 15 15 14 13 13 14 14 13 16 15 17 17 15
7 8 8 8 8 10 15 18 19 17 19 17 17 15 15 14 11 9 11 11 10 10 12 13 14 12 12 12 10 11 11 15 15 17 13 13 14 13 13 13 12 14 14 14
7 8 8 8 8 11 16 16 15 16 18 19 19 18 17 15 13 9 7 8 11 11 10 9 10 10 10 11 12 12 13 15 16 19 15 15 18 15 14 13 13 12 15 12
7 8 8 8 8 11 15 15 16 19 19 19 19 17 16 15 13 12 9 8 10 7 6 7 8 11 11 11 12 11 14 15 15 18 18 21 16 13 12 13 13 12 12 12
7 7 8 8 8 9 14 14 16 18 20 18 17 16 16 14 12 11 10 8 8 7 7 11 12 12 13 12 11 12 11 13 16 18 19 16 15 13 13 14 14 11 11 11
6 6 7 7 8 9 13 14 14 16 19 19 16 17 16 16 16 13 10 8 8 8 9 12 16 17 15 15 12 11 12 13 15 17 20 20 16 12 11 11 15 11 11 11
5 6 6 6 7 7 11 13 13 15 18 16 16 17 16 13 13 13 12 11 12 9 11 14 15 15 13 16 16 15 14 13 16 15 18 16 13 12 10 17 15 10 11 11
5 5 5 5 6 7 9 11 11 12 15 16 14 13 13 12 12 13 12 12 11 12 12 13 13 14 13 15 14 15 15 17 17 14 16 20 12 11 13 11 8 8 10 11
6 6 6 5 5 6 8 11 9 10 12 14 12 11 9 9 9 11 11 12 12 11 11 11 11 13 12 14 16 13 15 14 15 15 15 12 11 10 9 7 7 8 7 9
6 6 6 5 5 5 7 10 9 9 12 13 14 13 10 7 7 8 12 12 9 10 9 10 10 13 13 15 13 14 13 12 13 13 12 12 11 9 9 8 8 8 8 7
7 7 6 5 5 4 6 8 8 9 11 15 14 8 10 8 8 8 8 10 9 10 10 12 10 12 11 13 13 13 11 11 12 13 11 11 10 9 9 8 7 8 8 8
8 7 5 5 4 3 5 7 7 7 11 16 14 11 10 9 9 9 9 10 11 13 14 11 11 8 10 12 12 12 11 11 12 13 10 10 10 9 8 8 8 9 9 9
6 6 5 4 3 4 7 12 11 9 8 12 16 11 11 10 8 10 11 11 12 12 12 13 12 9 9 12 14 11 10 10 9 10 10 9 9 9 8 8 8 9 9 9
6 5 4 5 4 6 9 12 10 7 8 13 16 14 11 10 8 11 12 11 11 12 12 13 12 11 9 10 12 9 10 9 9 9 8 9 9 9 9 9 9 9 10 10
5 5 5 5 4 5 9 7 5 6 10 11 15 16 14 9 11 9 10 12 12 10 13 11 12 12 12 13 10 9 9 9 9 9 9 9 9 9 10 10 10 11 11 11
6 5 6 8 9 11 8 5 5 6 11 15 13 18 19 11 11 8 8 8 11 9 11 11 11 12 14 12 11 11 11 11 10 10 10 9 9 9 10 10 11 12 11 11
6 9 12 14 10 5 5 9 10 10 10 11 13 13 14 10 10 10 9 8 10 12 11 8 11 13 11 12 12 12 11 11 11 11 12 11 11 10 11 11 10 10 10 10
11 13 11 7 4 7 9 12 12 13 14 12 12 12 14 9 12 11 8 11 10 13 13 11 13 12 11 12 13 12 11 11 11 10 10 9 9 10 10 10 10 9 9 10
11 11 7 7 9 11 13 14 13 13 17 13 12 10 11 9 8 10 9 11 10 14 8 11 14 12 11 11 11 11 10 11 11 10 11 10 10 10 10 10 10 11 11 11
11 11 12 12 12 17 20 23 16 15 11 10 11 12 9 8 8 10 10 12 12 9 12 14 12 10 10 10 10 10 10 10 10 11 10 11 11 11 11 11 12 13 13 13
14 16 17 18 17 16 18 18 18 15 11 11 13 11 10 9 10 9 12 10 10 15 17 14 12 11 11 10 9 10 10 10 10 11 11 12 12 12 12 12 12 13 13 14
17 15 19 17 16 20 16 17 16 15 11 13 10 11 10 11 10 9 10 12 15 13 14 12 11 11 11 11 10 11 11 11 11 11 11 12 13 14 13 13 14 15 15 15
16 17 18 15 17 21 14 13 18 15 11 12 10 12 12 14 12 13 15 15 17 15 13 11 11 11 11 10 10 10 11 11 11 11 12 12 13 15 16 15 15 16 16 16
14 16 15 16 19 18 17 14 14 12 12 17 12 14 14 13 15 14 12 13 12 10 10 10 11 11 12 11 10 10 10 10 11 12 13 14 14 15 15 16 17 16 16 16